Orbital Elements at Epoch 2459200.5 (2020-Dec-17.0) TDB
Reference: JPL 33 (heliocentric ecliptic J2000)
Element | Value | Uncertainty (1-sigma) | Units |
e | .09218652247532121 | 1.6804e-08 | |
a | 2.588685470797354 | 1.0467e-08 | au |
q | 2.350043559462156 | 4.3623e-08 | au |
i | 12.94947621151418 | 1.2731e-06 | deg |
node | 234.91165983152 | 2.4909e-06 | deg |
peri | 73.68272075963151 | 2.0594e-05 | deg |
M | 50.22305640980701 | 1.7624e-05 | deg |
tp | 2458988.264516842815 (2020-May-18.76451684) | 7.4782e-05 | TDB |
period | 1521.308725481456 4.17 | 9.2271e-06 2.526e-08 | d yr |
n | .2366383587828756 | 1.4353e-09 | deg/d |
Q | 2.827327382132552 | 1.1432e-08 | au |
|
| | Orbit Determination Parameters
Additional Information
|